Regional Weather Roundup
Issued by NWS

Home | Current Version | Previous Version | Graphics & Text | Print | Product List | Glossary On
Versions: 1 2 3 4 5 6 7 8 9 10 11 12 13 14 15 16 17 18 19 20 21 22 23 24 25 26 27 28 29 30 31 32 33 34 35 36 37 38 39 40 41 42 43 44 45 46 47 48 49 50
000
ASUS45 KPSR 030800
RWRAZ

ARIZONA HOURLY REGIONAL WEATHER ROUNDUP
NATIONAL WEATHER SERVICE PHOENIX AZ
100 AM MST FRI JUL 03 2015

NOTE: FAIR INDICATES FEW OR NO CLOUDS BELOW 12,000 FEET WITH NO
SIGNIFICANT WEATHER AND/OR OBSTRUCTIONS TO VISIBILITY.

AZZ001>003-036-030900-
NORTHWEST ARIZONA

CITY           SKY/WX    TMP DP  RH WIND       PRES   REMARKS
KINGMAN        PTCLDY    81  52  36 S10       29.98F
$$

AZZ004>008-015-016-018-030900-
NORTH CENTRAL ARIZONA

CITY           SKY/WX    TMP DP  RH WIND       PRES   REMARKS
GRAND CANYON     N/A    N/A N/A N/A MISG      30.23R
WILLIAMS       MOCLDY    59  54  82 S8        30.29S
PRESCOTT       PTCLDY    73  54  51 S6        30.10S
FLAGSTAFF      NOT AVBL
PAYSON         MOCLDY    75  50  41 SW3       30.12S
PAGE           CLOUDY    84  49  29 N5        29.99S
$$

AZZ009>014-017-030900-
NORTHEAST ARIZONA

CITY           SKY/WX    TMP DP  RH WIND       PRES   REMARKS
WINSLOW        NOT AVBL
SAINT JOHNS    CLOUDY    71  57  61 W3        30.15R
WINDOW ROCK    CLOUDY    67  54  63 NE5       30.25S
SHOW LOW       MOCLDY    70  52  52 SE12      30.22R
$$

AZZ023-030900-
GREATER PHOENIX AREA

CITY           SKY/WX    TMP DP  RH WIND       PRES   REMARKS
PHOENIX        CLOUDY    96  56  26 W6        29.78R THUNDER
LUKE AFB       MOCLDY    95  57  28 S9        29.77S
DEER VALLEY    CLOUDY    93  56  28 S5        29.80R
SCOTTSDALE     LGT RAIN  92  61  35 CALM      29.83R
$$

AZZ027-028-030900-
SOUTHWEST MARICOPA COUNTY AND PINAL COUNTY

CITY           SKY/WX    TMP DP  RH WIND       PRES   REMARKS
CASA GRANDE    CLOUDY    90  55  31 S6        29.84R
GILA BEND      FAIR      93  54  27 SW10      29.79R
$$

AZZ503-504-507>509-030900-
SOUTHEAST ARIZONA

CITY           SKY/WX    TMP DP  RH WIND       PRES   REMARKS
TUCSON         CLOUDY    89  53  29 W7        29.95F
DAVIS-MONTHAN  MOCLDY    88  55  32 W10       29.93F
NOGALES        CLOUDY    77  61  57 S6        30.08R
SIERRA VISTA   CLOUDY    80  53  39 W13       30.11S
SAFFORD        LGT RAIN  87  57  35 N8        29.96R
$$

AZZ020-021-025-026-031-030900-
SOUTHWEST ARIZONA

CITY           SKY/WX    TMP DP  RH WIND       PRES   REMARKS
YUMA           CLEAR     86  67  52 S12       29.78R
$$

CAZ031-033-041-043-047-048-061-030900-
SOUTHERN CALIFORNIA

CITY           SKY/WX    TMP DP  RH WIND       PRES   REMARKS
DOWNTOWN L.A.  CLEAR     65  61  87 CALM      29.94S
L.A. AIRPORT   MOCLDY    64  61  90 W8        29.95S
SAN DIEGO      CLOUDY    70  63  78 NW3       29.97S
BURBANK        CLEAR     69  60  73 SE3       29.94F
ONTARIO        CLEAR     71  58  63 S5        29.95F
RIVERSIDE      CLEAR     73  58  59 CALM      29.96S
PALM SPRINGS   CLEAR     90  58  33 E5        29.79S
EL CENTRO NAS  CLEAR     87  53  31 W9        29.76S
IMPERIAL       PTCLDY    85  55  35 CALM      29.75R
BLYTHE         CLEAR     94  59  31 SW12      29.73S
$$

NVZ020-UTZ003-030900-
SOUTHERN NEVADA-UTAH

CITY           SKY/WX    TMP DP  RH WIND       PRES   REMARKS
LAS VEGAS      NOT AVBL
SALT LAKE CITY CLEAR     79  47  32 E8        29.99R
$$

NMZ009-TXZ055-030900-
NEW MEXICO-WEST TEXAS

CITY           SKY/WX    TMP DP  RH WIND       PRES   REMARKS
ALBUQUERQUE    CLOUDY    69  59  70 N6        30.18F
EL PASO        MOCLDY    83  48  29 E8        30.01S
$$


........................KEY........................
SKY/WX - SKY CONDITION/WEATHER
TMP    - TEMPERATURE IN FAHRENHEIT
DP     - DEW POINT IN FAHRENHEIT
RH     - RELATIVE HUMIDITY IN PERCENT
WIND   - DIRECTION AND SPEED IN MILES PER HOUR (MPH)
VRB    - VARIABLE WIND DIRECTION
PRES   - MEAN SEA LEVEL PRESSURE IN INCHES OF MERCURY
         F - FALLING PRESSURE   R - RISING PRESSURE
         S - STEADY PRESSURE
VSB    - VISIBILITY IN MILES
HX     - HEAT INDEX IN FAHRENHEIT
WCI    - WIND CHILL INDEX IN FAHRENHEIT
TC     - TEMPERATURE IN CELSIUS WHICH IS ALSO KNOWN AS
         TEMPERATURE IN CENTIGRADE
AFB    - AIR FORCE BASE
         LUKE AFB IS LUKE AIR FORCE BASE
         DAVIS-MONTHAN IS DAVIS-MONTHAN AIR FORCE BASE
NAS    - NAVAL AIR STATION
         EL CENTRO NAS IS EL CENTRO NAVAL AIR STATION
N/A    - NOT AVAILABLE




USA.gov is the U.S. government's official web portal to all federal, state and local government web resources and services.